User: anonymous   Login
Location: Owatonna
(44.0840°N, 93.2260°W)
Time: 05:04:54
(UTC-05:00)
Language:

ALOS - Orbit

View from above orbital plane
View from above orbital plane
View from above satellite
View from above satellite

Ground track
Ground track

The orbit data is extracted from the following two-line orbital elements,

1 28931U 06002A   17231.97700618 +.00000175 +00000-0 +43230-4 0  9992
2 28931 097.8409 256.1319 0002493 096.8892 263.2596 14.62378814616784
Epoch (UTC): 19 August 2017 23:26:53
Eccentricity: 0.0002493
inclination: 97.8409°
perigee height: 684 km
apogee height: 687 km
right ascension of ascending node: 256.1319°
argument of perigee: 96.8892°
revolutions per day: 14.62378814
mean anomaly at epoch: 263.2596°
orbit number at epoch: 61678

The dashed part of the orbit path shows where the satellite is in the earth's shadow,  

DLR